Location: L�tisburg
(47.3947°N, 9.0820°E)
Time: 01:45:48
(UTC+00:00)

Cosmos 1707 Rocket - Pass Details

Date: 22 June 2021
Orbit: 604 x 632 km, 82.5° (Epoch: 02 August)

Event Time Altitude Azimuth Distance (km) Brightness Sun altitude
Rises 02:17:15 0° 4° (N) 2,905 8.0 -9.3°
Reaches altitude 10° 02:20:07 10° 23° (NNE) 1,988 7.6 -9.0°
Maximum altitude 02:23:11 18° 67° (ENE) 1,508 6.5 -8.7°
Drops below altitude 10° 02:26:13 10° 112° (ESE) 1,966 6.4 -8.4°
Sets 02:29:01 0° 131° (SE) 2,860 7.0 -8.0°
